Tracking 31027 objects as of 19-Jul-2025
HD Live streaming from Space Station
objects crossing your sky now

SL-8 R/B

Track SL-8 R/B now!
10-day predictions


NORAD ID: 13354
Int'l Code: 1982-069B
Perigee: 934.8 km
Apogee: 1,012.8 km
Inclination: 83.0 °
Period: 104.4 minutes
Semi major axis: 7344 km
RCS: 4.6655 m2 (large)
Launch date: July 7, 1982
Source: Commonwealth of Independent States (former USSR) (CIS)
Launch site: PLESETSK MISSILE AND SPACE COMPLEX (PKMTR)

Note: This is a ROCKET BODY
Your satellite tracking list
Your tracking list is empty




NASA's NSSDC Master Catalog

Two Line Element Set (TLE):
1 13354U 82069B   25199.58159465  .00000050  00000-0  32616-4 0  9997
2 13354  82.9611 303.8242 0053125 113.1535 247.5233 13.79215133164420
Source of the keplerian elements: AFSPC